Regional Weather Roundup
Issued by NWS

Home | Current Version | Previous Version | Text Only | Print | Product List | Glossary On
Versions: 1 2 3 4 5 6 7 8 9 10 11 12 13 14 15 16 17 18 19 20 21 22 23 24 25 26 27 28 29 30 31 32 33 34 35 36 37 38 39 40 41 42 43 44 45 46 47 48 49 50
000
ASUS44 KMEG 222010
RWRTN
TENNESSEE HOURLY STATE WEATHER ROUNDUP
NATIONAL WEATHER SERVICE MEMPHIS TN
300 PM CDT FRI AUG 22 2014

TNZ002-004-019-021-049-052-054-088>092-222100-
WEST TENNESSEE

CITY           SKY/WX    TMP DP  RH WIND       PRES   REMARKS
MEMPHIS INTL   MOSUNNY   95  72  47 SW6       30.03F HX 103
NWS MEMPHIS      N/A     94 N/A N/A MISG        N/A
JACKSON        MOSUNNY   92  72  51 W9        30.03F HX  99
DYERSBURG      PTSUNNY   93  70  46 SW7       30.01F HX  99
UNION CITY     SUNNY     91  75  59 S7        30.00F HX 102
PARIS          SUNNY     90  75  62 SW8       30.03F HX 100
HUNTINGDON     MOSUNNY   89  75  63 W6        30.03F HX  98
LEXINGTON      MOSUNNY   93  72  49 W8        30.03F HX 100
SAVANNAH       MOSUNNY   91  73  55 W6        30.05F HX 100
$$

TNZ008-025-027-028-033-062-065-066-222100-
NORTH MIDDLE TENNESSEE

CITY           SKY/WX    TMP DP  RH WIND       PRES   REMARKS
NASHVILLE      PTSUNNY   92  72  51 VRB6      30.03F HX  99
DICKSON        PTSUNNY   90  73  58 W8        30.05F HX  98
PORTLAND       PTSUNNY   90  73  58 SW6       30.03F HX  98
CLARKSVILLE    PTSUNNY   88  74  63 S9        30.01F HX  96
LEBANON        PTSUNNY   90  73  57 W5        30.03F HX  98
SMYRNA         PTSUNNY   92  72  51 VRB5      30.03F HX  99
MURFREESBORO   PTSUNNY   92  71  50 NW7       30.03F HX  98
COOKEVILLE     MOSUNNY   90  75  62 W3        30.06F HX 100
GALLATIN       PTSUNNY   93  76  57 VRB3      30.03F HX 105
CROSSVILLE     MOSUNNY   85  69  58 W7        30.12F
$$

TNZ061-075-076-078-094-096-097-222100-
SOUTH MIDDLE TENNESSEE

CITY           SKY/WX    TMP DP  RH WIND       PRES   REMARKS
LEWISBURG      PTSUNNY   92  73  53 N5        30.05F HX 100
FAYETTEVILLE   MOSUNNY   90  66  45 NW5       30.07F HX  92
TULLAHOMA      MOSUNNY   90  70  51 W7        30.08F HX  95
WINCHESTER     SUNNY     90  72  55 W5        30.07F HX  96
MCMINNVILLE    SUNNY     90  75  62 W5        30.07F HX 100
COLUMBIA       MOSUNNY   93  73  52 VRB5      30.03F HX 102
SHELBYVILLE    SUNNY     93  75  55 W7        30.06F HX 104
$$

TNZ017-018-042-046-047-222100-
NORTHEAST TENNESSEE

CITY           SKY/WX    TMP DP  RH WIND       PRES   REMARKS
TRI CITIES     MOSUNNY   87  69  54 SW12      30.05F HX  91
ELIZABETHTON   CLEAR     88  70  55 W8        30.05F HX  92
$$

TNZ012-013-036-069-073-074-222100-
CENTRAL EAST TENNESSEE

CITY           SKY/WX    TMP DP  RH WIND       PRES   REMARKS
KNOXVILLE      NOT AVBL
OAK RIDGE      MOSUNNY   91  70  49 VRB6      30.05F HX  96
GATLINBURG     MOCLDY    81  73  78 NW9       30.05S
MORRISTOWN     CLEAR     90  72  55 W8        30.06F HX  96
$$

TNZ083-085-099-222100-
SOUTHEAST TENNESSEE

CITY           SKY/WX    TMP DP  RH WIND       PRES   REMARKS
CHATTANOOGA    PTSUNNY   94  67  41 W9        30.05F HX  97
$$

SKY/WX REPORTED AS FAIR MEANS FEW OR NO CLOUDS BELOW
12 THOUSAND FEET.




USA.gov is the U.S. government's official web portal to all federal, state and local government web resources and services.